RYR77WG EGSS-EIKY

Flight info

Callsign RYR77WG
Flight time 1h 5m
Altitude 38000
Route NUGBO M183 SILVA P86 DIDZA N14 OKSAW DCT BIBPE DCT FELCA DCT OFSOX DCT SLANY DCT KER
Aircraft B738/M-SDE2E3FGHIRWXY/LB1

Departure

Time 2026-05-05 19:42
Airport London Stansted Airport (EGSS)

Arrival

Time 2026-05-05 20:47
Airport Kerry Airport (EIKY)
Time Latitude Longitude Altitude Speed Heading
2026-05-05 18:53 51.89407 0.25774 351 ft 0 kts 107°
2026-05-05 19:29 51.89408 0.25771 361 ft 3 kts 107°
2026-05-05 19:29 51.89415 0.25730 358 ft 4 kts 107°
2026-05-05 19:29 51.89422 0.25697 360 ft 4 kts 123°
2026-05-05 19:29 51.89438 0.25678 360 ft 4 kts 197°
2026-05-05 19:30 51.89458 0.25700 355 ft 4 kts 223°
2026-05-05 19:30 51.89462 0.25707 361 ft 0 kts 223°
2026-05-05 19:33 51.89442 0.25676 360 ft 9 kts 223°
2026-05-05 19:33 51.89387 0.25595 359 ft 1 kts 222°
2026-05-05 19:34 51.89362 0.25558 358 ft 9 kts 223°
2026-05-05 19:34 51.89302 0.25467 351 ft 13 kts 223°
2026-05-05 19:34 51.89222 0.25347 356 ft 13 kts 222°
2026-05-05 19:35 51.89084 0.25139 351 ft 6 kts 222°
2026-05-05 19:35 51.89031 0.25063 351 ft 14 kts 224°
2026-05-05 19:35 51.88949 0.24937 351 ft 16 kts 223°
2026-05-05 19:35 51.88871 0.24820 355 ft 14 kts 223°
2026-05-05 19:36 51.88816 0.24677 359 ft 18 kts 289°
2026-05-05 19:36 51.88866 0.24532 351 ft 13 kts 260°
2026-05-05 19:36 51.88793 0.24404 346 ft 19 kts 223°
2026-05-05 19:36 51.88696 0.24260 346 ft 17 kts 223°
2026-05-05 19:37 51.88607 0.24124 341 ft 18 kts 223°
2026-05-05 19:37 51.88519 0.23991 336 ft 17 kts 223°
2026-05-05 19:37 51.88444 0.23880 343 ft 12 kts 221°
2026-05-05 19:37 51.88383 0.23793 348 ft 12 kts 221°
2026-05-05 19:38 51.88354 0.23751 347 ft 0 kts 221°
2026-05-05 19:38 51.88352 0.23748 347 ft 5 kts 224°
2026-05-05 19:38 51.88249 0.23589 343 ft 19 kts 222°
2026-05-05 19:38 51.88160 0.23455 336 ft 17 kts 223°
2026-05-05 19:39 51.88076 0.23330 337 ft 16 kts 223°
2026-05-05 19:39 51.87996 0.23211 336 ft 15 kts 223°
2026-05-05 19:39 51.87918 0.23093 334 ft 15 kts 223°
2026-05-05 19:39 51.87844 0.22984 337 ft 14 kts 223°
2026-05-05 19:40 51.87802 0.22895 335 ft 14 kts 243°
2026-05-05 19:40 51.87802 0.22872 336 ft 1 kts 296°
2026-05-05 19:40 51.87816 0.22855 334 ft 4 kts 329°
2026-05-05 19:40 51.87847 0.22822 334 ft 7 kts 318°
2026-05-05 19:41 51.87889 0.22759 330 ft 9 kts 313°
2026-05-05 19:41 51.87936 0.22690 332 ft 9 kts 338°
2026-05-05 19:41 51.88037 0.22784 329 ft 41 kts 43°
2026-05-05 19:41 51.88407 0.23341 341 ft 102 kts 43°
2026-05-05 19:42 51.89060 0.24320 357 ft 151 kts 43°
2026-05-05 19:42 51.89884 0.25549 788 ft 162 kts 43°
2026-05-05 19:42 51.90739 0.26829 1310 ft 179 kts 43°
2026-05-05 19:42 51.91702 0.28281 1732 ft 193 kts 44°
2026-05-05 19:43 51.92821 0.29476 2285 ft 198 kts 21°
2026-05-05 19:43 51.94196 0.29801 2729 ft 211 kts 358°
2026-05-05 19:43 51.95665 0.29045 3043 ft 233 kts 329°
2026-05-05 19:43 51.96790 0.27017 3395 ft 259 kts 296°
2026-05-05 19:44 51.97229 0.24135 4114 ft 267 kts 281°
2026-05-05 19:44 51.97490 0.21158 4746 ft 266 kts 280°
2026-05-05 19:44 51.97750 0.18196 5005 ft 267 kts 280°
2026-05-05 19:44 51.98030 0.15197 4991 ft 269 kts 281°
2026-05-05 19:45 51.98333 0.12221 4993 ft 266 kts 282°
2026-05-05 19:45 51.98645 0.09275 5003 ft 264 kts 282°
2026-05-05 19:45 51.98929 0.06335 4998 ft 265 kts 275°
2026-05-05 19:45 51.98697 0.03370 5010 ft 266 kts 258°
2026-05-05 19:46 51.98273 0.00442 5003 ft 267 kts 259°
2026-05-05 19:46 51.97871 -0.02506 4991 ft 269 kts 259°
2026-05-05 19:46 51.97477 -0.05483 4986 ft 270 kts 261°
2026-05-05 19:46 51.97087 -0.08469 4993 ft 271 kts 261°
2026-05-05 19:47 51.96696 -0.11467 5006 ft 272 kts 261°
2026-05-05 19:47 51.96310 -0.14441 5003 ft 274 kts 260°
2026-05-05 19:47 51.95915 -0.17463 5007 ft 275 kts 261°
2026-05-05 19:47 51.95520 -0.20465 5573 ft 272 kts 262°
2026-05-05 19:48 51.95129 -0.23461 6542 ft 270 kts 260°
2026-05-05 19:48 51.94737 -0.26453 7375 ft 272 kts 261°
2026-05-05 19:48 51.94341 -0.29463 8223 ft 274 kts 260°
2026-05-05 19:48 51.93939 -0.32518 9016 ft 278 kts 261°
2026-05-05 19:49 51.93532 -0.35590 9866 ft 281 kts 260°
2026-05-05 19:49 51.93253 -0.37700 10288 ft 287 kts 260°
2026-05-05 19:49 51.92671 -0.42117 10578 ft 318 kts 259°
2026-05-05 19:49 51.92197 -0.45699 11061 ft 329 kts 260°
2026-05-05 19:50 51.91711 -0.49339 11863 ft 330 kts 259°
2026-05-05 19:50 51.91221 -0.53004 12626 ft 334 kts 259°
2026-05-05 19:50 51.90723 -0.56716 13346 ft 341 kts 258°
2026-05-05 19:50 51.90218 -0.60474 14162 ft 342 kts 259°
2026-05-05 19:51 51.89707 -0.64263 14868 ft 346 kts 258°
2026-05-05 19:51 51.89194 -0.68070 15670 ft 348 kts 258°
2026-05-05 19:51 51.88673 -0.71915 16404 ft 352 kts 258°
2026-05-05 19:51 51.88144 -0.75817 17107 ft 357 kts 257°
2026-05-05 19:52 51.87606 -0.79772 17797 ft 363 kts 257°
2026-05-05 19:52 51.87065 -0.83741 18378 ft 369 kts 257°
2026-05-05 19:52 51.86512 -0.87797 19068 ft 370 kts 257°
2026-05-05 19:52 51.85956 -0.91850 19794 ft 371 kts 257°
2026-05-05 19:53 51.85371 -0.95944 20416 ft 373 kts 254°
2026-05-05 19:53 51.84404 -0.99839 21089 ft 376 kts 242°
2026-05-05 19:53 51.82988 -1.03427 21635 ft 382 kts 232°
2026-05-05 19:53 51.81183 -1.06606 22252 ft 385 kts 226°
2026-05-05 19:54 51.79276 -1.09667 22848 ft 389 kts 226°
2026-05-05 19:54 51.77339 -1.12750 23384 ft 393 kts 226°
2026-05-05 19:54 51.75391 -1.15866 23921 ft 395 kts 226°
2026-05-05 19:54 51.73444 -1.19006 24464 ft 396 kts 226°
2026-05-05 19:55 51.71503 -1.22152 24981 ft 397 kts 226°
2026-05-05 19:55 51.69547 -1.25331 25468 ft 400 kts 226°
2026-05-05 19:55 51.67582 -1.28521 25946 ft 402 kts 226°
2026-05-05 19:55 51.65611 -1.31717 26418 ft 404 kts 226°
2026-05-05 19:56 51.63933 -1.35334 26837 ft 406 kts 244°
2026-05-05 19:56 51.63079 -1.39657 27305 ft 409 kts 261°
2026-05-05 19:56 51.63023 -1.44238 27750 ft 413 kts 275°
2026-05-05 19:56 51.63744 -1.48737 28150 ft 420 kts 292°
2026-05-05 19:57 51.65105 -1.52933 28554 ft 425 kts 297°
2026-05-05 19:57 51.66070 -1.55678 28778 ft 427 kts 297°
2026-05-05 19:57 51.68014 -1.61299 29244 ft 432 kts 296°
2026-05-05 19:57 51.69416 -1.65595 29603 ft 433 kts 291°
2026-05-05 19:58 51.70441 -1.70151 29959 ft 433 kts 282°
2026-05-05 19:58 51.70992 -1.74895 30271 ft 432 kts 274°
2026-05-05 19:58 51.71288 -1.79730 30573 ft 434 kts 273°
2026-05-05 19:58 51.71596 -1.84573 30878 ft 436 kts 274°
2026-05-05 19:59 51.71927 -1.89436 31306 ft 435 kts 274°
2026-05-05 19:59 51.72269 -1.94272 31751 ft 434 kts 275°
2026-05-05 19:59 51.72612 -1.99087 32222 ft 431 kts 275°
2026-05-05 19:59 51.72954 -2.03885 32636 ft 430 kts 275°
2026-05-05 20:00 51.73293 -2.08677 32961 ft 431 kts 275°
2026-05-05 20:00 51.73630 -2.13486 33314 ft 431 kts 275°
2026-05-05 20:00 51.73959 -2.18220 33687 ft 430 kts 275°
2026-05-05 20:00 51.74289 -2.23016 34083 ft 429 kts 275°
2026-05-05 20:01 51.74616 -2.27800 34368 ft 430 kts 275°
2026-05-05 20:01 51.74942 -2.32604 34598 ft 431 kts 275°
2026-05-05 20:01 51.75267 -2.37418 34881 ft 431 kts 275°
2026-05-05 20:01 51.75590 -2.42221 35189 ft 430 kts 275°
2026-05-05 20:02 51.75910 -2.47019 35503 ft 429 kts 275°
2026-05-05 20:02 51.76228 -2.51816 35730 ft 430 kts 275°
2026-05-05 20:02 51.76545 -2.56626 35959 ft 432 kts 275°
2026-05-05 20:02 51.76861 -2.61456 36212 ft 432 kts 275°
2026-05-05 20:03 51.77173 -2.66257 36555 ft 430 kts 275°
2026-05-05 20:03 51.77483 -2.71055 36852 ft 429 kts 275°
2026-05-05 20:03 51.77792 -2.75861 37049 ft 431 kts 275°
2026-05-05 20:03 51.78099 -2.80678 37240 ft 432 kts 275°
2026-05-05 20:04 51.78406 -2.85519 37500 ft 433 kts 275°
2026-05-05 20:04 51.78709 -2.90331 37874 ft 430 kts 275°
2026-05-05 20:04 51.79009 -2.95127 38023 ft 427 kts 275°
2026-05-05 20:05 51.79601 -3.04677 38054 ft 429 kts 275°
2026-05-05 20:05 51.80190 -3.14330 38055 ft 435 kts 275°
2026-05-05 20:06 51.80780 -3.24109 38032 ft 437 kts 275°
2026-05-05 20:06 51.81357 -3.33817 38002 ft 431 kts 275°
2026-05-05 20:07 51.81917 -3.43360 38013 ft 428 kts 275°
2026-05-05 20:07 51.82472 -3.52926 37994 ft 426 kts 276°
2026-05-05 20:08 51.83491 -3.62348 38018 ft 425 kts 282°
2026-05-05 20:08 51.84767 -3.71685 38013 ft 425 kts 282°
2026-05-05 20:09 51.86024 -3.81042 38010 ft 426 kts 282°
2026-05-05 20:09 51.87242 -3.90443 37993 ft 428 kts 281°
2026-05-05 20:10 51.88441 -3.99877 38024 ft 429 kts 281°
2026-05-05 20:10 51.89634 -4.09353 38016 ft 430 kts 281°
2026-05-05 20:11 51.90822 -4.18844 38027 ft 430 kts 281°
2026-05-05 20:11 51.91997 -4.28299 38016 ft 431 kts 281°
2026-05-05 20:12 51.93173 -4.37826 38022 ft 431 kts 281°
2026-05-05 20:12 51.94341 -4.47354 38014 ft 431 kts 281°
2026-05-05 20:13 51.95500 -4.56875 38024 ft 430 kts 281°
2026-05-05 20:13 51.96650 -4.66390 38022 ft 430 kts 281°
2026-05-05 20:14 51.97789 -4.75888 38033 ft 429 kts 281°
2026-05-05 20:14 51.98919 -4.85369 38025 ft 428 kts 281°
2026-05-05 20:15 52.00038 -4.94836 38038 ft 427 kts 281°
2026-05-05 20:15 52.01147 -5.04283 38039 ft 426 kts 281°
2026-05-05 20:16 52.02248 -5.13718 38031 ft 425 kts 280°
2026-05-05 20:16 52.03524 -5.23080 38040 ft 425 kts 287°
2026-05-05 20:17 52.05380 -5.32117 38042 ft 425 kts 288°
2026-05-05 20:17 52.07276 -5.41174 38021 ft 416 kts 288°
2026-05-05 20:17 52.08171 -5.45554 38013 ft 401 kts 288°
2026-05-05 20:18 52.09025 -5.49786 38017 ft 388 kts 288°
2026-05-05 20:18 52.10684 -5.58087 38055 ft 389 kts 287°
2026-05-05 20:19 52.12368 -5.66564 38067 ft 399 kts 287°
2026-05-05 20:19 52.13795 -5.73760 38063 ft 403 kts 287°
2026-05-05 20:20 52.15500 -5.82474 38048 ft 402 kts 284°
2026-05-05 20:20 52.16311 -5.91362 38062 ft 395 kts 274°
2026-05-05 20:21 52.16716 -6.00278 38054 ft 395 kts 274°
2026-05-05 20:21 52.17118 -6.09230 37627 ft 403 kts 274°
2026-05-05 20:21 52.17329 -6.13784 37095 ft 402 kts 274°
2026-05-05 20:22 52.17543 -6.18327 36583 ft 402 kts 274°
2026-05-05 20:22 52.17757 -6.22867 36077 ft 402 kts 275°
2026-05-05 20:22 52.17972 -6.27407 35593 ft 402 kts 275°
2026-05-05 20:22 52.18185 -6.31944 35096 ft 402 kts 275°
2026-05-05 20:23 52.18396 -6.36478 34617 ft 401 kts 275°
2026-05-05 20:23 52.18606 -6.41011 34147 ft 401 kts 275°
2026-05-05 20:23 52.18814 -6.45541 33612 ft 400 kts 275°
2026-05-05 20:23 52.19020 -6.50055 33069 ft 400 kts 275°
2026-05-05 20:24 52.19224 -6.54570 32539 ft 399 kts 275°
2026-05-05 20:24 52.19425 -6.59080 32020 ft 398 kts 275°
2026-05-05 20:24 52.19625 -6.63576 31509 ft 397 kts 274°
2026-05-05 20:24 52.19822 -6.68061 31008 ft 397 kts 274°
2026-05-05 20:25 52.20017 -6.72538 30514 ft 396 kts 274°
2026-05-05 20:25 52.20210 -6.77010 30009 ft 394 kts 274°
2026-05-05 20:25 52.20400 -6.81458 29438 ft 393 kts 274°
2026-05-05 20:25 52.20588 -6.85889 28878 ft 391 kts 274°
2026-05-05 20:26 52.20774 -6.90297 28326 ft 389 kts 274°
2026-05-05 20:26 52.20957 -6.94697 27781 ft 388 kts 274°
2026-05-05 20:26 52.21138 -6.99071 27251 ft 386 kts 274°
2026-05-05 20:26 52.21316 -7.03426 26732 ft 384 kts 274°
2026-05-05 20:27 52.21492 -7.07756 26215 ft 382 kts 274°
2026-05-05 20:27 52.21665 -7.12076 25718 ft 381 kts 274°
2026-05-05 20:27 52.21836 -7.16375 25223 ft 379 kts 274°
2026-05-05 20:27 52.22005 -7.20654 24741 ft 377 kts 274°
2026-05-05 20:28 52.22172 -7.24917 24265 ft 376 kts 274°
2026-05-05 20:28 52.22337 -7.29162 23794 ft 374 kts 273°
2026-05-05 20:28 52.22499 -7.33389 23266 ft 373 kts 273°
2026-05-05 20:28 52.22656 -7.37542 22719 ft 371 kts 273°
2026-05-05 20:29 52.22814 -7.41734 22182 ft 370 kts 273°
2026-05-05 20:29 52.22970 -7.45905 21651 ft 368 kts 274°
2026-05-05 20:29 52.23123 -7.50070 21120 ft 367 kts 274°
2026-05-05 20:29 52.23275 -7.54214 20609 ft 365 kts 274°
2026-05-05 20:30 52.23424 -7.58338 20111 ft 364 kts 274°
2026-05-05 20:30 52.23572 -7.62453 19620 ft 363 kts 274°
2026-05-05 20:30 52.23718 -7.66553 19131 ft 362 kts 274°
2026-05-05 20:30 52.23862 -7.70642 18651 ft 360 kts 274°
2026-05-05 20:31 52.24004 -7.74717 18136 ft 359 kts 274°
2026-05-05 20:31 52.24144 -7.78774 17613 ft 358 kts 274°
2026-05-05 20:31 52.24282 -7.82826 17082 ft 357 kts 274°
2026-05-05 20:31 52.24419 -7.86860 16558 ft 355 kts 274°
2026-05-05 20:32 52.24553 -7.90880 16045 ft 354 kts 274°
2026-05-05 20:32 52.24686 -7.94885 15538 ft 353 kts 274°
2026-05-05 20:32 52.24817 -7.98876 15044 ft 352 kts 274°
2026-05-05 20:32 52.24946 -8.02854 14554 ft 351 kts 274°
2026-05-05 20:33 52.25073 -8.06819 14071 ft 349 kts 274°
2026-05-05 20:33 52.25199 -8.10771 13556 ft 348 kts 274°
2026-05-05 20:33 52.25322 -8.14703 13031 ft 346 kts 274°
2026-05-05 20:33 52.25444 -8.18621 12512 ft 345 kts 274°
2026-05-05 20:34 52.25562 -8.22461 12221 ft 330 kts 274°
2026-05-05 20:34 52.25671 -8.26096 12062 ft 311 kts 274°
2026-05-05 20:34 52.25773 -8.29518 11908 ft 293 kts 274°
2026-05-05 20:34 52.25869 -8.32754 11763 ft 278 kts 274°
2026-05-05 20:35 52.25961 -8.35851 11624 ft 269 kts 274°
2026-05-05 20:35 52.26052 -8.38916 11513 ft 272 kts 274°
2026-05-05 20:35 52.26144 -8.42023 11398 ft 276 kts 274°
2026-05-05 20:35 52.26234 -8.45126 11275 ft 278 kts 274°
2026-05-05 20:36 52.26325 -8.48272 11158 ft 277 kts 274°
2026-05-05 20:36 52.26414 -8.51408 11032 ft 276 kts 274°
2026-05-05 20:36 52.26501 -8.54536 10919 ft 275 kts 274°
2026-05-05 20:36 52.26588 -8.57655 10791 ft 275 kts 274°
2026-05-05 20:37 52.26673 -8.60763 10670 ft 274 kts 274°
2026-05-05 20:37 52.26758 -8.63864 10547 ft 273 kts 274°
2026-05-05 20:37 52.26842 -8.66964 10427 ft 273 kts 274°
2026-05-05 20:37 52.26924 -8.70065 10304 ft 273 kts 274°
2026-05-05 20:38 52.27006 -8.73157 10186 ft 273 kts 274°
2026-05-05 20:38 52.27089 -8.76296 9715 ft 282 kts 274°
2026-05-05 20:38 52.27171 -8.79466 9039 ft 279 kts 274°
2026-05-05 20:38 52.27250 -8.82568 8630 ft 263 kts 274°
2026-05-05 20:39 52.27322 -8.85451 8297 ft 246 kts 274°
2026-05-05 20:39 52.27390 -8.88165 7910 ft 234 kts 272°
2026-05-05 20:39 52.27666 -8.90744 7410 ft 228 kts 289°
2026-05-05 20:39 52.28135 -8.93185 6940 ft 224 kts 287°
2026-05-05 20:40 52.28596 -8.95601 6482 ft 221 kts 288°
2026-05-05 20:40 52.28853 -8.97993 6163 ft 210 kts 264°
2026-05-05 20:40 52.28506 -9.00258 5928 ft 203 kts 255°
2026-05-05 20:40 52.28142 -9.02453 5655 ft 197 kts 256°
2026-05-05 20:41 52.27790 -9.04599 5388 ft 195 kts 256°
2026-05-05 20:41 52.27397 -9.06726 5135 ft 196 kts 254°
2026-05-05 20:41 52.26999 -9.08846 4879 ft 195 kts 258°
2026-05-05 20:41 52.26709 -9.11005 4628 ft 195 kts 257°
2026-05-05 20:42 52.26319 -9.13137 4371 ft 197 kts 255°
2026-05-05 20:42 52.25884 -9.15258 4109 ft 197 kts 254°
2026-05-05 20:42 52.25449 -9.17326 3868 ft 193 kts 254°
2026-05-05 20:42 52.25017 -9.19367 3742 ft 188 kts 253°
2026-05-05 20:43 52.24591 -9.21385 3610 ft 189 kts 254°
2026-05-05 20:43 52.24161 -9.23423 3498 ft 192 kts 253°
2026-05-05 20:43 52.23726 -9.25480 3380 ft 191 kts 253°
2026-05-05 20:43 52.23293 -9.27531 3237 ft 191 kts 254°
2026-05-05 20:44 52.22868 -9.29548 3200 ft 184 kts 254°
2026-05-05 20:44 52.22455 -9.31510 3058 ft 183 kts 254°
2026-05-05 20:44 52.22041 -9.33487 2791 ft 185 kts 254°
2026-05-05 20:44 52.21623 -9.35472 2504 ft 185 kts 255°
2026-05-05 20:45 52.20791 -9.39439 1919 ft 187 kts 254°
2026-05-05 20:45 52.20378 -9.41408 1604 ft 181 kts 256°
2026-05-05 20:45 52.19978 -9.43323 1319 ft 177 kts 256°
2026-05-05 20:46 52.19590 -9.45177 1033 ft 168 kts 253°
2026-05-05 20:46 52.19221 -9.46951 721 ft 163 kts 253°
2026-05-05 20:46 52.18866 -9.48667 434 ft 156 kts 252°
2026-05-05 20:46 52.18528 -9.50295 231 ft 148 kts 251°
2026-05-05 20:47 52.18202 -9.51833 101 ft 133 kts 251°
2026-05-05 20:47 52.17976 -9.52921 104 ft 61 kts 251°
2026-05-05 20:47 52.17886 -9.53347 103 ft 34 kts 251°
2026-05-05 20:47 52.17896 -9.53569 103 ft 18 kts 339°
2026-05-05 20:48 52.18015 -9.53633 104 ft 13 kts 336°
2026-05-05 20:48 52.18084 -9.53677 103 ft 7 kts
2026-05-05 20:48 52.18093 -9.53651 106 ft 2 kts 83°
2026-05-05 20:48 52.18093 -9.53632 103 ft 0 kts 102°
2026-05-05 20:49 52.18094 -9.53644 103 ft 0 kts 98°
2026-05-05 20:50 52.17994 -9.53620 104 ft 0 kts 340°
2026-05-05 20:50 52.22707 -9.30311 3168 ft 182 kts 254°
2026-05-05 20:51 52.19261 -9.46756 758 ft 163 kts 253°
2026-05-05 20:51 52.18904 -9.48481 466 ft 157 kts 252°
2026-05-05 20:51 52.18565 -9.50117 254 ft 148 kts 252°
2026-05-05 20:51 52.18237 -9.51669 105 ft 139 kts 251°
2026-05-05 20:52 52.18799 -9.48989 396 ft 149 kts 252°
2026-05-05 20:52 52.18569 -9.50097 257 ft 148 kts 252°
2026-05-05 20:52 52.18241 -9.51652 106 ft 140 kts 251°